    Orbital elements:
    2018 GN                                                  Earth MOID = 0.0028 AU
    Epoch 2018 Mar. 23.0 TT = JDT 2458200.5                 MPC
    M 343.61727              (2000.0)            P               Q
    n   0.26277964     Peri.  255.09712     +0.18758863     +0.98218686
    a   2.4140239      Node    25.72273     -0.89123728     +0.17487503
    e   0.7346075      Incl.    1.44309     -0.41292447     +0.06875820
    P   3.75           H   26.2           G   0.15           U   5
    Residuals in seconds of arc
    180408 703  0.3-  0.2+    180408 113  0.1+  0.4+    180408 A17  0.2+  0.5-
    180408 703  0.0   0.3+    180408 G34  0.1+  0.3-    180408 C43  0.2-  0.1+
    180408 703  0.2+  0.1+    180408 G34  0.1-  0.6-    180408 L04  0.0   0.0
    180408 703  0.1+  0.0     180408 G34  0.4-  0.7-    180408 A17  0.0   1.3-
    180408 703  0.3+  0.0     180408 G34  0.0   1.1-    180408 L04  0.1+  0.5+
    180408 703  0.2-  0.4-    180408 G34  0.9+  1.0-    180408 L04  0.0   0.5+
    180408 703  0.1-  0.5-    180408 A17  0.4+  0.8-    180408 L01  0.0   0.2-
    180408 703  0.5+  0.0     180408 246  0.1-  0.1-    180408 L01  0.0   0.2+
    180408 H06  0.0   0.4-    180408 246  0.1-  0.0     180408 L01  0.1+  0.1-
    180408 H06  0.4-  0.4-    180408 246  0.1-  0.1+    180408 L01  0.2+  0.8+
    180408 E23  0.1-  1.3+    180408 246  0.1+  0.4+    180408 L01  0.1-  0.1-
    180408 E23  0.4-  0.3+    180408 G34  0.2-  0.8-    180408 L01  0.3+  0.8+
    180408 E23  0.3+  0.1+    180408 246  0.4-  0.3-    180408 C47  0.0   0.5-
    180408 P93  0.5+  0.6-    180408 246  0.1+  0.3-    180408 C47  0.0   0.1+
    180408 P93  0.0   0.4-    180408 246  0.2-  0.7-    180408 C47  0.3-  0.3-
    180408 P93  0.1-  0.2-    180408 246  0.3-  0.0     180408 C47  0.0   0.0
    180408 P93  0.4+  0.4-    180408 246  0.0   0.3-    180408 C47  0.1-  0.3-
    180408 K61  0.2-  0.4+    180408 A17  0.1+  0.8-    180408 C47  0.3-  0.2-
    180408 K61  0.3+  0.8+    180408 595  0.4-  0.3+    180408 K87  0.3+  0.2-
    180408 K61  0.1+  0.6+    180408 A17  0.1+  0.9-    180408 K87  0.2+  0.3+
    180408 K61  0.1+  1.8+    180408 595  0.2+  0.8+    180408 K87  0.3+  0.8+
    180408 113  0.2-  0.5+    180408 C43  0.5-  0.4+    180408 K87  0.1-  0.2-
    180408 113  0.1+  0.5+    180408 C43  0.2-  0.2+    180408 K87  0.2+  0.3-
    180408 113  0.3+  0.7+    180408 C43  0.1-  0.3+    180408 K87  0.1+  0.2-
    180408 113  0.3+  0.4+    180408 595  0.4+  0.7+
    
    Ephemeris:
    2018 GN                  a,e,i = 2.41, 0.73, 1                   q = 0.6407
    Date    TT    R. A. (2000) Decl.     Delta      r     Elong.  Phase     V
    2018 03 10    12 55 16.9 -03 16 13   0.3990  1.3651   155.0    17.9    25.8
    ...
    2018 03 25    12 58 41.4 -03 00 04   0.1941  1.1883   169.0     9.2    23.6
    ...
    2018 04 02    12 59 30.8 -02 03 59   0.09334 1.0925   175.3     4.3    21.6
    ...
    2018 04 08    13 02 14.9 +04 26 57   0.01997 1.0207   168.5    11.3    18.4
    2018 04 09    13 07 32.2 +16 54 26   0.0081061.0088   155.7    24.1    16.9
    2018 04 10    00 43 53.6 +35 24 54   0.0054300.9970    28.5   151.4    23.6
    ...
    2018 04 16    00 58 23.5 +05 42 02   0.07801 0.9267    10.1   169.1
    ...
    2018 04 24    01 00 04.6 +04 41 40   0.1787  0.8374    18.0   158.3    32.5
    ...
    2018 05 09    01 09 44.3 +05 26 37   0.3898  0.6995    30.0   133.9    29.5
    
    A. U. Tomatic                (C) Copyright 2018 MPC           M.P.E.C. 2018-G35
    

    Read MPEC 2018-G34 Read MPEC 2018-G36


    MPEC number:

    Enter an MPEC number in one of the following forms:

    • 1997-B01 (the full form)
    • J97B01 (the packed version of the full form)
    • B01 (the abbreviated form)